Regional Weather Roundup
Issued by NWS

Home | Current Version | Previous Version | Graphics & Text | Print | Product List | Glossary On
Versions: 1 2 3 4 5 6 7 8 9 10 11 12 13 14 15 16 17 18 19 20 21 22 23 24 25 26 27 28 29 30 31 32 33 34 35 36 37 38 39 40 41 42 43 44 45 46 47 48 49 50
000
ASUS43 KLMK 220202
RWRKY
KENTUCKY REGIONAL WEATHER ROUNDUP
NATIONAL WEATHER SERVICE LOUISVILLE KY
900 PM EST TUE FEB 21 2017

NOTE "FAIR" INDICATES FEW OR NO CLOUDS BELOW 12,000 FEET
WITH NO SIGNIFICANT WEATHER AND/OR OBSTRUCTIONS TO VISIBILITY.

KYZ001>023-026-027-061>063-070>075-220300-
WESTERN AND SOUTH CENTRAL KENTUCKY

CITY           SKY/WX    TMP DP  RH WIND       PRES   REMARKS
PADUCAH        CLOUDY    58  55  90 SE5       29.91S
HENDERSON      CLOUDY    57  52  82 NE3       29.92S
OWENSBORO      NOT AVBL
HOPKINSVILLE   NOT AVBL
BOWLING GREEN  LGT RAIN  60  55  83 SE8       29.96S
GLASGOW        NOT AVBL
$$

KYZ024-025-028>034-038-045-046-053-220300-
NORTH CENTRAL KENTUCKY

CITY           SKY/WX    TMP DP  RH WIND       PRES   REMARKS
LOUISVILLE/SDF CLOUDY    63  53  70 SE12      29.97S
LOUISVILLE/LOU CLOUDY    63  54  72 SE7       29.98R
FORT KNOX      CLOUDY    59  57  94 SE6       29.95R
$$

KYZ035>037-039>044-047>052-055>060-089>105-220300-
NORTHEAST KENTUCKY

CITY           SKY/WX    TMP DP  RH WIND       PRES   REMARKS
LEXINGTON      LGT RAIN  61  53  75 SW8       29.99S
COVINGTON      LGT RAIN  56  55  97 SE3       29.99S FOG
FRANKFORT      CLOUDY    60  53  77 SW9       29.98R
$$

KYZ054-064>069-076>088-106>120-220300-
SOUTHEAST KENTUCKY

CITY           SKY/WX    TMP DP  RH WIND       PRES   REMARKS
JACKSON        LGT RAIN  66  44  45 W5        30.00S
LONDON         CLOUDY    61  50  67 W6        30.00S
SOMERSET       RAIN      55  54  94 CALM      30.02S
MIDDLESBORO    DRIZZLE   60  49  67 CALM      30.01S
MONTICELLO     CLOUDY    58  54  86 VRB6      30.02S
$$




USA.gov is the U.S. government's official web portal to all federal, state and local government web resources and services.